Regional Weather Roundup
Issued by NWS

Home | Current Version | Previous Version | Graphics & Text | Print | Product List | Glossary On
Versions: 1 2 3 4 5 6 7 8 9 10 11 12 13 14 15 16 17 18 19 20 21 22 23 24 25 26 27 28 29 30 31 32 33 34 35 36 37 38 39 40 41 42 43 44 45 46 47 48 49 50
000
ASUS43 KLOT 260308
RWRIL

ILLINOIS REGIONAL WEATHER ROUNDUP
NATIONAL WEATHER SERVICE CHICAGO/ROMEOVILLE IL
1000 PM CDT THU AUG 25 2016

NOTE: "FAIR" INDICATES FEW OR NO CLOUDS BELOW 12,000 FEET WITH NO
SIGNIFICANT WEATHER AND/OR OBSTRUCTIONS TO VISIBILITY.

* THESE STATIONS ARE NOT UNDER NWS QUALITY CONTROL. THEY ALSO MAY NOT
  REPORT WEATHER SUCH AS PRECIPITATION OR FOG.

ILZ001-002-007-009-015-016-024-260400-
NORTHWEST ILLINOIS

CITY           SKY/WX    TMP DP  RH WIND       PRES   REMARKS
MOLINE         CLEAR     66  62  87 S3        30.10R
STERLING*      CLEAR     67  66  97 CALM      30.10R
SAVANNA*       CLEAR     69  65  88 CALM      30.09R
$$

ILZ003-004-008-010-011-017-018-260400-
NORTH CENTRAL ILLINOIS

CITY           SKY/WX    TMP DP  RH WIND       PRES   REMARKS
ROCKFORD       MOCLDY    71  65  81 CALM      30.09S
FREEPORT*      PTCLDY    67  63  87 NW5       30.11R
ROCHELLE*      CLOUDY    64  64  99 SW3       30.09S
DE KALB*       PTCLDY    67  64  91 CALM      30.10R
$$

ILZ005-006-012>014-019>023-260400-
NORTHEAST ILLINOIS

CITY           SKY/WX    TMP DP  RH WIND       PRES   REMARKS
CHICAGO-OHARE  CLOUDY    70  64  81 W6        30.07R
CHICAGO-MIDWAY MOCLDY    74  63  68 NW6       30.06S
AURORA         CLOUDY    67  64  90 NW5       30.08S
LANSING*       CLEAR     73  71  92 CALM      30.07S
JOLIET*        CLOUDY    72  68  87 CALM      30.08R
WAUKEGAN       PTCLDY    69  63  81 W3        30.06R
DUPAGE AIRPORT CLOUDY    69  63  81 NW3       30.07S
KANKAKEE*      PTCLDY    72  69  91 CALM      30.08R
WHEELING       PTCLDY    71  64  78 CALM      30.08R
MORRIS*        CLOUDY    69  66  90 CALM      30.07R
ROMEOVILLE*    CLOUDY    69  67  96 NW3       30.08R
NORTHERLY ISL    N/A     70  67  90 S1          N/A
$$

LMZ740>746-260400-
SOUTHERN LAKE MICHIGAN

STATION/POSITION SKY/WX   TEMP    WIND        PRES    VSBY  WAVE
                          AIR SEA DIR/SP/G                  HT/PER
                          (F)     (DEG/KT/KT) (MB)    (MI)  (FT/S)
SOUTHERN BUOY              74 75  220/  8/  8 1016.9R         1
WILMETTE HARBOR            71 69  260/  4/  4   N/A           0
HARRISON CRIB              74     220/  2/  2   N/A
BURNHAM HARBOR             70      CALM  /  2   N/A
CALUMET HARBOR             72                 1017.6R
BURNS HARBOR               74      70/  4/  6 1018.3R
MICHIGAN CITY              74      60/  2/  2   N/A
MICHIGAN CITY 6N           74 75   60/  2/  2   N/A           1
ST. JOSEPH                 74 76  230/  2/  2 1017.5S         1/ 4
$$

ILZ025>027-034>036-040-047-049-050-058-095>099-260400-
WEST-CENTRAL ILLINOIS

CITY           SKY/WX    TMP DP  RH WIND       PRES   REMARKS
QUINCY         CLOUDY    73  67  81 NE9       30.07S
GALESBURG*     CLOUDY    67  65  94 CALM      30.10R
MACOMB*        MOCLDY    70  67  89 CALM      30.11R
JACKSONVILLE*  MOCLDY    74  73  96 CALM      30.06F
PITTSFIELD*    CLOUDY    74  69  86 N5        30.07F
$$

ILZ028>032-037-038-041>044-048-051>054-059>061-260400-
CENTRAL ILLINOIS

CITY           SKY/WX    TMP DP  RH WIND       PRES   REMARKS
PONTIAC        CLOUDY    72  71  98 CALM      30.10R
BLOOMINGTON    CLOUDY    74  70  87 N7        30.10R
DECATUR        CLOUDY    76  72  87 NE3       30.07R
PEORIA         CLOUDY    73  70  90 N5        30.09R
LACON*         MOCLDY    69  67  92 CALM      30.08S
LINCOLN*       PTCLDY    76  73  88 N5        30.07S
SPRINGFIELD    MOCLDY    77  73  87 N5        30.07R
TAYLORVILLE    CLOUDY    76  73  93 N6        30.06S
$$

ILZ033-039-045-046-055>057-062-063-260400-
EAST-CENTRAL ILLINOIS

CITY           SKY/WX    TMP DP  RH WIND       PRES   REMARKS
CHAMPAIGN      CLOUDY    76  72  87 N5        30.08R
RANTOUL*       CLOUDY    77  73  87 N5        30.08S
MATTOON        MOCLDY    78  75  90 CALM      30.05S HX  81
PARIS*         MOCLDY    74  74  99 CALM      30.07S
$$

ILZ079-100>102-260400-
SOUTHWEST ILLINOIS

CITY           SKY/WX    TMP DP  RH WIND       PRES   REMARKS
ALTON          CLOUDY    77  73  88 CALM      30.04S
BELLEVILLE     PTCLDY    78  77  97 SE1       30.04R HX  80
CAHOKIA*       MOCLDY    79  74  84 S3        30.04R HX  82
SPARTA*        CLEAR     80  73  79 S5        30.07R HX  85
$$

ILZ064>066-069>071-074>076-080>082-084>086-088>090-092>094-260400-
SOUTH-CENTRAL ILLINOIS

CITY           SKY/WX    TMP DP  RH WIND       PRES   REMARKS
CARBONDALE     CLEAR     75  72  90 S5        30.06R
CAIRO*         PTCLDY    75  74  98 CALM      30.06S
EFFINGHAM*     PTCLDY    80  77  92 CALM      30.07S HX  85
MARION         PTCLDY    77  73  88 S3        30.07S
MT. VERNON     PTCLDY    75  70  83 CALM      30.07R
CENTRALIA*     CLOUDY    77  75  94 S5        30.05R
SALEM*         PTCLDY    80  74  82 S3        30.07R HX  85
$$

ILZ067-068-072-073-078-083-087-091-260400-
SOUTHEAST ILLINOIS

CITY           SKY/WX    TMP DP  RH WIND       PRES   REMARKS
LAWRENCEVILLE  CLEAR     77  75  93 S3        30.05S
FLORA*         CLEAR     78  75  90 CALM      30.06S HX  82
FAIRFIELD*     PTCLDY    78  74  85 CALM      30.06R HX  81
HARRISBURG*    MOCLDY    76  75  95 CALM      30.06S
ROBINSON*      CLEAR     73  72  95 CALM      30.06S
CARMI*         PTCLDY    75  74  97 S3        30.06S
$$

ABBREVIATIONS USED IN REMARKS
   TC - TEMPERATURE IN CELSIUS
  WCI - WIND CHILL INDEX
   HX - HEAT INDEX
  VSB - VISIBILITY
$$





USA.gov is the U.S. government's official web portal to all federal, state and local government web resources and services.